www.pogodaiklimat.ru

Погода и климат >> Архив погоды >> Россия >> Курганская область >> Далматово


ПОГОДА в Далматово

  • Прогноз погоды в Далматово
  • Монитор погоды в Далматово

АРХИВ ПОГОДЫ в Далматово

Время (UTC), дата Ветер
(напр.,м/с)
 
Видим.   Явления Облачность Т
(С)
Тd
(С)
f
(%)
Тe
(С)
Тes
(С)
Комфортность P
(гПа)
Po
(гПа)
Тmin
(С)
Tmax
(С)
R
(мм)
R24
(мм)
S
(см)
18 18.06 штиль 0 4000 м дымка 3/1 600 м
[Sc Ci fib]
+6.1 +5.3 95 +5 +5 1009.2 996.6
21 18.06 З 1 4000 м дымка 3/3 600 м
[Sc]
+5.1 +4.1 93 +4 +4 1009.4 996.8
00 19.06 З 1 4000 м дымка 3/3 600 м
[Sc]
+3.7 +3.3 97 +2 +2 1010.1 997.4
03 19.06 З 2 50 км 4/0
[Cc]
+13.6 +7.6 67 +13 +18 1010.1 997.8 +3.1
06 19.06 З 3 50 км 1/1 600 м
[Cu hum]
+20.4 +7.1 42 +22 +32 комфорт 1009.8 997.8
09 19.06 З 4 50 км 4/4 600 м
[Cu Sc]
+22.3 +5.6 34 +23 +29 комфорт 1009.7 997.8
12 19.06 ЮЗ 4 50 км 3/0
[Ci fib]
+23.1 +5.3 32 +23 +28 комфорт 1009.2 997.4
15 19.06 ЮЗ 2 50 км 8/3 600 м
[Sc Ci fib]
+21.4 +6.0 37 +22 +22 комфорт 1009.3 997.3 +23.2
18 19.06 штиль 0 20 км 9/5 600 м
[Sc Cs]
+12.8 +8.0 73 +12 +12 1009.9 997.6
21 19.06 З 1 20 км 10/10 600 м
[Sc]
+14.6 +8.1 65 +15 +15 1010.2 998.0
00 20.06 штиль 0 10 км {ливн. осадки} 10/10 600 м
[Sc]
+11.8 +11.5 98 +11 +11 1010.9 998.6
03 20.06 ЮЗ 1 50 км 10/1 600 м
[Sc Cs]
+17.5 +12.8 74 +19 +23 1011.4 999.3 +11.1 3
06 20.06 З 3 50 км 8/3 600 м
[Cu med, cong Ac trans Cs]
+23.3 +13.6 54 +27 +32 душно 1011.1 999.2
09 20.06 ЮЗ 2 20 км гроза без осадков 10/10 600 м
[Cb calv]
+22.5 +14.0 59 +26 +26 жарко 1010.8 998.9
12 20.06 ЮЗ 3 20 км {гроза} 4/3 600 м
[Cu med, cong Ci fib]
+25.7 +12.7 44 +27 +31 жарко 1009.2 997.4
15 20.06 ЮЗ 1 20 км 8/3 600 м
[Cu hum Cs]
+22.9 +12.5 52 +26 +26 жарко 1008.2 996.3 +25.7
18 20.06 З 2 20 км 9/6 600 м
[Sc Cs]
+19.9 +12.7 63 +22 +22 комфорт 1008.4 996.4
21 20.06 СЗ 1 20 км 4/4 600 м
[Sc]
+16.6 +12.0 74 +17 +17 1009.2 997.1
00 21.06 З 1 10 км 9/9 600 м
[Sc]
+14.5 +13.1 91 +15 +15 1009.4 997.2
03 21.06 СЗ 2 20 км 3/0
[Ci fib]
+17.8 +12.6 72 +18 +23 1010.9 998.8 +13.8
06 21.06 СЗ 4 50 км 1/1 1000 м
[Cu hum]
+21.2 +7.6 41 +22 +30 комфорт 1011.2 999.2
09 21.06 СЗ 4
{10}
50 км 9/8 600 м
[Cu med, cong Ci fib]
+22.5 +7.2 37 +23 +25 комфорт 1010.9 999.0
12 21.06 СЗ 5
{11}
50 км 10/5 600 м
[Cu med, cong Cs]
+23.3 +5.6 32 +24 +25 комфорт 1010.7 998.8
15 21.06 СЗ 4
{11}
50 км 1/0
[Ci fib]
+20.6 +3.4 32 +21 +22 комфорт 1011.8 999.8 +24.0
18 21.06 С 2
{11}
20 км 6/6 600 м
[Sc]
+13.9 +4.2 52 +14 +14 1015.6 1003.3
21 21.06 штиль 0 20 км 8/8 600 м
[Sc]
+4.2 +2.2 87 +3 +3 1017.6 1004.8
00 22.06 штиль 0 4000 м дымка 6/3 600 м
[Sc Ci fib]
+3.4 +2.8 96 +2 +2 1019.0 1006.1
03 22.06 З 1 50 км 3/3 600 м
[Sc]
+14.2 +5.4 55 +15 +19 1019.0 1006.7 +3.3
06 22.06 СЗ 4 50 км 8/8 600 м
[Cu hum]
+18.0 +3.0 37 +18 +20 1018.9 1006.7
09 22.06 СЗ 2
{10}
50 км 8/8 600 м
[Cu med, cong Ci fib]
+20.6 +4.4 34 +22 +25 комфорт 1018.2 1006.1
12 22.06 СЗ 4 50 км 5/3 600 м
[Cu hum Ci fib]
+21.3 +3.1 30 +21 +24 комфорт 1017.5 1005.4
15 22.06 штиль 0 50 км 4/1 600 м
[Cu hum Ci fib]
+21.5 +4.9 34 +22 +23 комфорт 1016.8 1004.8 +22.3
18 22.06 штиль 0 20 км 3/3 600 м
[Sc]
+12.5 +8.2 75 +12 +12 1016.8 1004.4
21 22.06 З 1 20 км 3/3 600 м
[Sc]
+13.3 +7.9 70 +14 +14 1015.4 1003.0
00 23.06 З 1 20 км 3/3 600 м
[Sc]
+12.8 +7.7 71 +13 +13 1014.2 1001.8
03 23.06 З 3 20 км 10/10 600 м
[Cb calv]
+17.1 +12.2 73 +17 +17 1013.0 1000.9 +12.2
06 23.06 ЮЗ 2 20 км {ливн. осадки} 10/10 600 м
[Cb calv]
+17.0 +14.0 82 +17 +17 1011.9 999.7
09 23.06 З 3 20 км {ливн. осадки} 10/5 600 м
[Sc Ac trans Cs]
+21.0 +15.6 71 +25 +28 комфорт 1010.1 998.2
12 23.06 З 4 20 км {ливн. осадки} 4/3 600 м
[Sc Ci fib]
+25.9 +17.1 58 +30 +33 душно 1008.1 996.4
15 23.06 штиль 0 4000 м гроза, ливневой дождь 10/10 600 м
[Cb cap]
+19.7 +19.3 98 +22 +22 комфорт 1008.3 996.4 +26.2 11
18 23.06 З 1 2000 м дымка {гроза, ливн. осадки} 3/3 600 м
[Sc]
+18.4 +18.2 99 +20 +20 1008.7 996.7
21 23.06 штиль 0 2000 м дымка 1/1 600 м
[Sc]
+17.4 +17.1 98 +17 +17 1009.3 997.2
00 24.06 З 3 2000 м дымка ясно +17.0 +16.7 98 +17 +17 1010.4 998.3
03 24.06 З 3 10 км 3/3 600 м
[Sc]
+21.6 +18.4 82 +26 +29 душно 1011.3 999.4 +16.7 0.3
06 24.06 СЗ 2 20 км 1/1 600 м
[Cu med, cong]
+25.6 +16.8 58 +29 +42 душно 1011.1 999.4
09 24.06 СЗ 3 20 км 8/8 600 м
[Cu med, cong]
+27.0 +14.2 45 +29 +32 жарко 1010.5 999.1
12 24.06 СЗ 2 20 км 6/6 600 м
[Cu med, cong]
+27.9 +12.2 38 +29 +32 жарко 1010.9 999.2
15 24.06 штиль 0 20 км 8/5 600 м
[Cu Sc Ci fib]
+24.0 +15.4 59 +27 +27 жарко 1011.4 999.5 +28.0
18 24.06 штиль 0 20 км 4/4 600 м
[Sc]
+17.7 +12.9 73 +18 +18 1012.7 1000.6
21 24.06 штиль 0 10 км 10/10 600 м
[Sc]
+14.0 +12.2 89 +14 +14 1013.0 1000.7
00 25.06 штиль 0 4000 м дымка 10/10 600 м
[Sc]
+14.0 +13.0 94 +14 +14 1012.2 999.9
03 25.06 С 1 20 км 10/10 600 м
[Cb calv]
+16.2 +11.8 75 +17 +17 1012.1 999.9 +13.3
06 25.06 С 1 20 км 10/10 600 м
[Cb calv]
+17.3 +13.3 77 +18 +18 1011.7 999.6
09 25.06 СВ 2 20 км 10/10 600 м
[Cb calv]
+16.4 +12.6 78 +17 +17 1011.2 999.1
12 25.06 С 1 10 км слаб. ливневой дождь 10/10 600 м
[Cb cap]
+15.4 +14.1 92 +16 +16 1011.2 999.0

 

Местоположение метеостанции Далматово (Курганская область, Россия): широта 56.27 долгота 62.93 высота над уровнем моря 103 м.

В архиве по умолчанию представлена погода в Далматово за последнюю неделю. Архивные данные за месяц целиком и за предыдущие месяцы, начиная с января 2011 года, Вы можете получить, выбрав интересующий диапазон дат из раскрывающегося списка и нажав кнопку "Ввод!".


*Определитесь, кто Вы:
робот инопланетянин человек

Внимание! Время в таблицах - всемирное. Для получения местного времени необходимо прибавить поправку, которая равна 5 ч.

Смотрите также архив погоды в соседних городах и на ближайших метеорологических станциях:

Погода в Шадринске (Курганская область, Россия) (50 км)
Погода в Камышлове (Свердловская область, Россия) (66 км)
Погода в Каменск-Уральском (Свердловская область, Россия) (68 км)
Погода в Бутке (Свердловская область, Россия) (72 км)
Погода в Бродокалмаке (Челябинская область, Россия) (94 км)
Погода в Шатрово (Курганская область, Россия) (109 км)
Погода в Шумихе (Курганская область, Россия) (118 км)
Погода в Верхнем Дуброво (Свердловская область, Россия) (125 км)
Погода в Сысерти (Свердловская область, Россия) (132 км)
Погода в Артемовском (Свердловская область, Россия) (137 км)

Пояснения к столбцам:

Ветер - указаны скорость ветра в м/с - средняя за 10 мин, порывы в срок и между сроками (в фигурных скобках) и направление, откуда дует ветер: С - северный, СВ - северо-восточный, В - восточный, ЮВ - юго-восточный, Ю - южный, ЮЗ - юго-западный, З - западный, СЗ - северо-западный.
Видимость - горизонтальная дальность видимости в метрах или километрах. При видимости от 1 до 10 км при отсутствии осадков обычно наблюдается дымка, при ухудшении видимости до 1 км и менее - туман. В сухую погоду видимость может ухудшаться дымом, пылью или мглою.
Явления - указаны атмосферные явления, наблюдавшиеся в срок или в последний час перед сроком; фигурными скобками обозначены явления, наблюдавшиеся между сроками (за 1-3 часа до срока); квадратными скобками обозначены град или гололедные отложения с указанием их диаметра в мм.
Облачность - указаны через наклонную черту общая и нижняя облачность в баллах и высота нижней границы облаков в метрах; квадратными скобками обозначены формы облаков: Ci - перистые, Cs - перисто-слоистые, Cc - перисто-кучевые, Ac - высококучевые, As - высокослоистые, Sc - слоисто-кучевые, Ns - слоисто-дождевые, Cu - кучевые, Cb - кучево-дождевые. Подробнее классификацию облаков см. в Атласе облаков (PDF).
T - Температура воздуха - температура, измеренная на высоте 2 м над землей.
Td - Температура точки росы - температура, при понижении до которой содержащийся в воздухе водяной пар достигнет насыщения.
f - Относительная влажность воздуха - влажноcть воздуха, измеренная на высоте 2 м над землей.
Te - Эффективная температура - температура, которую ощущает одетый по сезону человек в тени. Характеристика душности погоды. При расчете учитывается влияние влажности воздуха и скорости ветра на теплоощущения человека.
Tes - Эффективная температура на солнце - температура, которую ощущает человек, с поправкой на солнечный нагрев. Характеристика знойности погоды. Зависит от высоты солнца над горизонтом, облачности и скорости ветра. Ночью, в пасмурную погоду, а также при ветре 12 м/с и более поправка равна нулю.
P - Атмосферное давление - приведенное к уровню моря атмосферное давление.
Po - Атмосферное давление - измеренное на уровне метеостанции атмосферное давление.
Tmin - Минимальная температура - минимум температуры воздуха на высоте 2 м над землей.
Tmax - Максимальная температура - максимум температуры воздуха на высоте 2 м над землей.
R - Количество осадков - Количество выпавших осадков за период времени, мм. При наведении курсора мыши на число - период времени, за который выпало указанное количество осадков.
R24 - Количество осадков - Количество выпавших осадков за 24 часа, мм.
S - Снежный покров - Высота снежного покрова, см. При наведении курсора мыши на число - состояние снежного покрова и степень покрытия местности в баллах.